• In Österreich
  • Länderverzeichnis
  • Für 7 Tage
  • Wassertemperatur
  • Satellitenkarten
  • Wetterkarte
  • News
  • Widgets
  • user-avatar
    Anmelden

    Stündliche Wetter Ketou

    Heute, 18 Januar, Donnerstag

    Zeit Temperatur Niederschläge Wind Luftdruck Luftfeuchtigkeit
    00:00 +28°C° 0 mm 1 m/S 746 mmHg 75%
    01:00 +28°C° 0 mm 1 m/S 745 mmHg 78%
    02:00 +27°C° 0 mm 1 m/S 745 mmHg 81%
    03:00 +27°C° 0 mm 1 m/S 745 mmHg 84%
    04:00 +26°C° 0 mm 1 m/S 745 mmHg 86%
    05:00 +24°C° 0 mm 0 m/S 745 mmHg 88%
    06:00 +24°C° 0 mm 0 m/S 745 mmHg 89%
    07:00 +26°C° 0 mm 0 m/S 746 mmHg 76%
    08:00 +28°C° 0 mm 0 m/S 746 mmHg 63%
    09:00 +31°C° 0 mm 0 m/S 747 mmHg 50%
    10:00 +34°C° 0 mm 1 m/S 746 mmHg 39%
    11:00 +36°C° 0 mm 1 m/S 746 mmHg 29%
    12:00 +39°C° 0 mm 2 m/S 745 mmHg 18%
    13:00 +40°C° 0 mm 2 m/S 745 mmHg 16%
    14:00 +40°C° 0 mm 2 m/S 744 mmHg 13%
    15:00 +41°C° 0 mm 2 m/S 743 mmHg 11%
    16:00 +39°C° 0 mm 2 m/S 743 mmHg 14%
    17:00 +38°C° 0 mm 2 m/S 743 mmHg 16%
    18:00 +36°C° 0 mm 2 m/S 743 mmHg 19%
    19:00 +34°C° 0 mm 2 m/S 744 mmHg 32%
    20:00 +33°C° 0 mm 3 m/S 744 mmHg 45%
    21:00 +30°C° 0 mm 3 m/S 745 mmHg 58%
    22:00 +29°C° 0 mm 3 m/S 745 mmHg 65%
    23:00 +28°C° 0 mm 2 m/S 745 mmHg 72%

    Morgen, 19 Januar, Freitag

    Zeit Temperatur Niederschläge Wind Luftdruck Luftfeuchtigkeit
    00:00 +27°C° 0 mm 2 m/S 745 mmHg 79%
    01:00 +27°C° 0 mm 2 m/S 745 mmHg 80%
    02:00 +27°C° 0 mm 1 m/S 745 mmHg 82%
    03:00 +26°C° 0 mm 1 m/S 745 mmHg 83%
    04:00 +26°C° 0 mm 1 m/S 745 mmHg 84%
    05:00 +26°C° 0 mm 1 m/S 745 mmHg 85%
    06:00 +24°C° 0 mm 0 m/S 745 mmHg 87%
    07:00 +27°C° 0 mm 1 m/S 746 mmHg 77%
    08:00 +29°C° 0 mm 1 m/S 746 mmHg 68%
    09:00 +31°C° 0 mm 1 m/S 747 mmHg 59%
    10:00 +33°C° 0 mm 1 m/S 746 mmHg 48%
    11:00 +36°C° 0 mm 1 m/S 746 mmHg 38%
    12:00 +40°C° 0 mm 1 m/S 745 mmHg 27%
    13:00 +40°C° 0 mm 1 m/S 745 mmHg 25%
    14:00 +40°C° 0 mm 1 m/S 744 mmHg 23%
    15:00 +40°C° 0 mm 2 m/S 743 mmHg 21%
    16:00 +39°C° 0 mm 2 m/S 743 mmHg 26%
    17:00 +37°C° 0 mm 3 m/S 743 mmHg 31%
    18:00 +35°C° 0 mm 3 m/S 744 mmHg 37%
    19:00 +34°C° 0 mm 3 m/S 744 mmHg 46%
    20:00 +31°C° 0 mm 3 m/S 745 mmHg 54%
    21:00 +30°C° 0 mm 3 m/S 746 mmHg 63%
    22:00 +29°C° 0 mm 3 m/S 745 mmHg 66%
    23:00 +29°C° 0 mm 3 m/S 745 mmHg 69%

    übermorgen, 20 Januar, Samstag

    Zeit Temperatur Niederschläge Wind Luftdruck Luftfeuchtigkeit
    00:00 +28°C° 0 mm 3 m/S 745 mmHg 72%
    01:00 +28°C° 0 mm 2 m/S 745 mmHg 75%
    02:00 +27°C° 0 mm 2 m/S 745 mmHg 77%
    03:00 +27°C° 0 mm 2 m/S 744 mmHg 80%
    04:00 +27°C° 0 mm 2 m/S 745 mmHg 81%
    05:00 +26°C° 0 mm 2 m/S 745 mmHg 83%
    06:00 +26°C° 0 mm 1 m/S 745 mmHg 84%
    07:00 +28°C° 0 mm 2 m/S 746 mmHg 75%
    08:00 +30°C° 0 mm 2 m/S 746 mmHg 66%
    09:00 +31°C° 0 mm 2 m/S 747 mmHg 56%
    10:00 +34°C° 0 mm 2 m/S 746 mmHg 48%
    11:00 +37°C° 0 mm 2 m/S 745 mmHg 39%
    12:00 +39°C° 0 mm 2 m/S 745 mmHg 31%
    13:00 +39°C° 0 mm 2 m/S 744 mmHg 29%
    14:00 +37°C° 0 mm 1 m/S 743 mmHg 28%
    15:00 +37°C° 0 mm 1 m/S 742 mmHg 26%
    16:00 +37°C° 0 mm 2 m/S 743 mmHg 30%
    17:00 +36°C° 0 mm 2 m/S 743 mmHg 34%
    18:00 +35°C° 0 mm 2 m/S 743 mmHg 38%
    19:00 +34°C° 0 mm 3 m/S 744 mmHg 46%
    20:00 +31°C° 0 mm 3 m/S 745 mmHg 54%
    21:00 +30°C° 0 mm 3 m/S 745 mmHg 63%
    22:00 +29°C° 0 mm 3 m/S 745 mmHg 67%
    23:00 +28°C° 0 mm 3 m/S 745 mmHg 71%

    21 Januar, Sonntag

    Zeit Temperatur Niederschläge Wind Luftdruck Luftfeuchtigkeit
    00:00 +28°C° 0 mm 3 m/S 745 mmHg 75%
    01:00 +27°C° 0 mm 3 m/S 745 mmHg 78%
    02:00 +27°C° 0 mm 2 m/S 744 mmHg 81%
    03:00 +27°C° 0 mm 2 m/S 744 mmHg 84%
    04:00 +26°C° 0 mm 2 m/S 744 mmHg 85%
    05:00 +26°C° 0 mm 1 m/S 745 mmHg 86%
    06:00 +26°C° 0 mm 1 m/S 745 mmHg 87%
    07:00 +27°C° 0 mm 1 m/S 745 mmHg 79%
    08:00 +29°C° 0 mm 2 m/S 746 mmHg 70%
    09:00 +31°C° 0 mm 2 m/S 747 mmHg 62%
    10:00 +34°C° 0 mm 2 m/S 746 mmHg 52%
    11:00 +36°C° 0 mm 1 m/S 745 mmHg 42%
    12:00 +40°C° 0 mm 1 m/S 745 mmHg 32%
    13:00 +37°C° 0 mm 0 m/S 744 mmHg 30%
    14:00 +36°C° 0 mm 0 m/S 743 mmHg 29%
    15:00 +36°C° 0 mm 0 m/S 742 mmHg 28%
    16:00 +37°C° 0 mm 1 m/S 743 mmHg 31%
    17:00 +37°C° 0 mm 2 m/S 743 mmHg 34%
    18:00 +36°C° 0 mm 2 m/S 743 mmHg 37%
    19:00 +34°C° 0 mm 3 m/S 744 mmHg 47%
    20:00 +33°C° 0 mm 3 m/S 744 mmHg 57%
    21:00 +30°C° 0 mm 3 m/S 745 mmHg 66%
    22:00 +29°C° 0 mm 3 m/S 745 mmHg 70%
    23:00 +29°C° 0 mm 3 m/S 745 mmHg 73%

    22 Januar, Montag

    Zeit Temperatur Niederschläge Wind Luftdruck Luftfeuchtigkeit
    00:00 +28°C° 0 mm 3 m/S 744 mmHg 76%
    01:00 +28°C° 0,3 mm 3 m/S 744 mmHg 78%
    02:00 +27°C° 0,3 mm 2 m/S 744 mmHg 80%
    03:00 +27°C° 0,3 mm 1 m/S 743 mmHg 82%
    04:00 +27°C° 0 mm 1 m/S 744 mmHg 83%
    05:00 +27°C° 0 mm 1 m/S 744 mmHg 83%
    06:00 +26°C° 0 mm 1 m/S 745 mmHg 84%
    07:00 +28°C° 0 mm 1 m/S 745 mmHg 75%
    08:00 +30°C° 0 mm 1 m/S 746 mmHg 66%
    09:00 +32°C° 0 mm 1 m/S 746 mmHg 57%
    10:00 +33°C° 0 mm 0 m/S 746 mmHg 48%
    11:00 +35°C° 0 mm 0 m/S 745 mmHg 39%
    12:00 +38°C° 0 mm 0 m/S 745 mmHg 29%
    13:00 +38°C° 0 mm 0 m/S 744 mmHg 27%
    14:00 +40°C° 0 mm 1 m/S 743 mmHg 26%
    15:00 +40°C° 0 mm 1 m/S 742 mmHg 24%
    16:00 +39°C° 0 mm 2 m/S 743 mmHg 27%
    17:00 +38°C° 0 mm 2 m/S 743 mmHg 31%
    18:00 +36°C° 0 mm 2 m/S 743 mmHg 34%
    19:00 +35°C° 0 mm 3 m/S 744 mmHg 44%
    20:00 +33°C° 0 mm 3 m/S 744 mmHg 54%
    21:00 +30°C° 0 mm 4 m/S 745 mmHg 64%
    22:00 +29°C° 0 mm 3 m/S 744 mmHg 67%
    23:00 +29°C° 0 mm 3 m/S 744 mmHg 71%

    23 Januar, Dienstag

    Zeit Temperatur Niederschläge Wind Luftdruck Luftfeuchtigkeit
    00:00 +28°C° 0 mm 2 m/S 744 mmHg 75%
    01:00 +28°C° 0 mm 2 m/S 744 mmHg 77%
    02:00 +27°C° 0 mm 2 m/S 744 mmHg 79%
    03:00 +27°C° 0 mm 2 m/S 744 mmHg 82%
    04:00 +27°C° 0 mm 2 m/S 744 mmHg 83%
    05:00 +27°C° 0 mm 1 m/S 744 mmHg 84%
    06:00 +26°C° 0 mm 1 m/S 745 mmHg 85%
    07:00 +28°C° 0 mm 1 m/S 745 mmHg 77%
    08:00 +30°C° 0 mm 1 m/S 746 mmHg 68%
    09:00 +31°C° 0 mm 1 m/S 746 mmHg 60%
    10:00 +32°C° 0 mm 0 m/S 746 mmHg 52%
    11:00 +34°C° 0 mm 0 m/S 745 mmHg 43%
    12:00 +37°C° 0 mm 0 m/S 745 mmHg 34%
    13:00 +37°C° 0 mm 0 m/S 744 mmHg 32%
    14:00 +36°C° 0 mm 0 m/S 743 mmHg 30%
    15:00 +36°C° 0 mm 0 m/S 743 mmHg 28%
    16:00 +37°C° 0 mm 1 m/S 743 mmHg 31%
    17:00 +37°C° 0 mm 2 m/S 743 mmHg 34%
    18:00 +36°C° 0 mm 2 m/S 743 mmHg 38%
    19:00 +34°C° 0 mm 3 m/S 744 mmHg 46%
    20:00 +33°C° 0 mm 3 m/S 744 mmHg 55%
    21:00 +30°C° 0 mm 4 m/S 745 mmHg 64%
    22:00 +29°C° 0 mm 3 m/S 745 mmHg 65%
    23:00 +29°C° 0 mm 3 m/S 744 mmHg 67%
    Mehr zeigen